INTELSAT 23 (IS-23)

Last updated on Sat Aug 15 2026 00:02:59 GMT+0000 (Coordinated Universal Time)

1 38867U 12057A 26226.48615573 -.00000300 00000+0 00000+0 0 9996 2 38867 0.0419 275.7979 0001000 317.6531 211.4506 1.00266987 50532
UTC large
Height (km)
Speed (km/s)
/
Latitude / Longitude
Inclination (degrees)
Orbital Period (minutes)
Azimuth
Elevation
Range (km)
Doppler Factor

Next 0 passes for location: London (51.5072 / 0.1276)

No passes found over London.
INTELSAT 23 (IS-23)